This is the latest recevied weather packets stored in our database for station/object AD6NH. If no packets are shown the sender has not sent any weather packets the latest 10 day(s).
| Time | Temp. | Humidity | Pressure | Rain* | Wind** | Luminosity | Snow |
|---|---|---|---|---|---|---|---|
| 1777464754 | 11.11° C | 76% | 1017.9 hPa | 0 mm | - | - | - |
| 1777464154 | 11.11° C | 76% | 1017.9 hPa | 0 mm | - | - | - |
| 1777463554 | 11.11° C | 77% | 1018 hPa | 0 mm | - | - | - |
| 1777462954 | 11.11° C | 78% | 1017.9 hPa | 0 mm | - | - | - |
| 1777462354 | 11.11° C | 77% | 1017.9 hPa | 0 mm | - | - | - |
| 1777461754 | 11.11° C | 76% | 1017.7 hPa | 0 mm | - | - | - |
| 1777461154 | 11.67° C | 75% | 1017.7 hPa | 0 mm | - | - | - |
| 1777460554 | 11.67° C | 76% | 1017.6 hPa | 0 mm | - | - | - |
| 1777459954 | 11.67° C | 77% | 1017.5 hPa | 0 mm | - | - | - |
| 1777459354 | 11.67° C | 78% | 1017.5 hPa | 0 mm | - | - | - |
| 1777458754 | 11.67° C | 80% | 1017.4 hPa | 0 mm | - | - | - |
| 1777458154 | 11.67° C | 81% | 1017.4 hPa | 0 mm | - | - | - |
| 1777457554 | 11.67° C | 81% | 1017.2 hPa | 0 mm | - | - | - |
| 1777456954 | 11.67° C | 81% | 1017.3 hPa | 0 mm | - | - | - |
| 1777456354 | 12.22° C | 80% | 1017.3 hPa | 0 mm | - | - | - |
| 1777455754 | 11.67° C | 82% | 1017.3 hPa | 0 mm | - | - | - |
| 1777455154 | 11.67° C | 84% | 1017.4 hPa | 0 mm | - | - | - |
| 1777454554 | 12.22° C | 82% | 1017.4 hPa | 0 mm | - | - | - |
| 1777453954 | 12.22° C | 83% | 1017.4 hPa | 0 mm | - | - | - |
| 1777453354 | 12.22° C | 82% | 1017.7 hPa | 0 mm | - | - | - |
| 1777452754 | 12.78° C | 79% | 1017.8 hPa | 0 mm | - | - | - |
| 1777452154 | 12.78° C | 79% | 1017.8 hPa | 0 mm | - | - | - |
| 1777451554 | 12.78° C | 79% | 1018.2 hPa | 0 mm | - | - | - |
| 1777450954 | 12.78° C | 80% | 1018.2 hPa | 0 mm | - | - | - |
| 1777450354 | 12.78° C | 80% | 1018.2 hPa | 0 mm | - | - | - |
* Rain latest hour (hover to see other rain measurements)
** Current wind speed in m/s (hover to see current wind gust speed)